Tracking 19146 objects as of 22-Apr-2018
HD Live streaming from Space Station
objects crossing your sky now

FENGYUN 1C DEB

Track FENGYUN 1C DEB now!
10-day predictions


NORAD ID: 31284
Int'l Code: 1999-025BNS
Perigee: 814.8 km
Apogee: 1,035.0 km
Inclination: 99.7 °
Period: 103.4 minutes
Semi major axis: 7295 km
RCS: 0.0158 m2 (small)
Launch date: May 10, 1999
Source: People's Republic of China (PRC)
Launch site: Taiyaun Space Center, China (TSC)

Note: This is SATELLITE DEBRIS
aabbcc
Your satellite tracking list
Your tracking list is empty




NASA's NSSDC Master Catalog

Two Line Element Set (TLE):
1 31284U 99025BNS 18111.52555736 +.00000316 +00000-0 +25585-3 0  9991
2 31284 099.7263 010.5992 0150925 322.1317 159.0056 13.93114422562440
Source of the keplerian elements: AFSPC